Information on these data can be found in provided Readme document
Contact Info: Zachary Fasnacht (zachary.fasnacht@ssaihq.com); Nickolay Krotkov (nickolay.a.krotkov@nasa.gov); Lok Lamsal (lok.lamsal@nasa.gov)

FillValue: -999.
ScaleFactor: 1e15
Units: molecules/cm^2

Date(yyyy-mm-dd),City,Country,LonCenter,LatCenter,BoundingCoordinates,Median,Q1,Q3,Mean,Baseline_Median,Baseline_Q1,Baseline_Q3,Baseline_Mean,NumGoodSamples,NumTotalSamples
2015-01-01,Edinburgh,Scotland,-3.1667,55.9167,[-3.6667 55.4167 -2.6667 56.4167],2.284,1.237,3.176,2.271,2.135,1.057,3.168,2.147,185.0,679.0
2015-01-02,Edinburgh,Scotland,-3.1667,55.9167,[-3.6667 55.4167 -2.6667 56.4167],2.232,1.27,3.448,2.299,2.14,1.034,3.245,2.125,158.0,684.0
2015-01-03,Edinburgh,Scotland,-3.1667,55.9167,[-3.6667 55.4167 -2.6667 56.4167],2.191,1.199,3.325,2.277,2.115,1.026,3.189,2.13,177.0,694.0
2015-01-04,Edinburgh,Scotland,-3.1667,55.9167,[-3.6667 55.4167 -2.6667 56.4167],2.232,1.237,3.448,2.288,2.206,1.06,3.245,2.158,174.0,704.0
2015-01-05,Edinburgh,Scotland,-3.1667,55.9167,[-3.6667 55.4167 -2.6667 56.4167],2.191,1.199,3.325,2.26,2.17,0.974,3.2,2.116,170.0,697.0
2015-01-06,Edinburgh,Scotland,-3.1667,55.9167,[-3.6667 55.4167 -2.6667 56.4167],2.329,1.27,3.586,2.34,2.242,0.975,3.307,2.162,156.0,695.0
2015-01-07,Edinburgh,Scotland,-3.1667,55.9167,[-3.6667 55.4167 -2.6667 56.4167],2.503,1.606,3.648,2.481,2.301,1.03,3.33,2.207,121.0,700.0
2015-01-08,Edinburgh,Scotland,-3.1667,55.9167,[-3.6667 55.4167 -2.6667 56.4167],2.503,1.606,3.648,2.481,2.32,1.04,3.312,2.198,121.0,696.0
2015-01-09,Edinburgh,Scotland,-3.1667,55.9167,[-3.6667 55.4167 -2.6667 56.4167],2.434,1.199,3.595,2.386,2.172,0.927,3.278,2.128,132.0,693.0
2015-01-10,Edinburgh,Scotland,-3.1667,55.9167,[-3.6667 55.4167 -2.6667 56.4167],2.434,1.152,3.617,2.387,2.24,0.944,3.351,2.176,131.0,640.0
2015-01-11,Edinburgh,Scotland,-3.1667,55.9167,[-3.6667 55.4167 -2.6667 56.4167],2.434,1.102,3.448,2.355,2.196,0.873,3.285,2.165,103.0,648.0
2015-01-12,Edinburgh,Scotland,-3.1667,55.9167,[-3.6667 55.4167 -2.6667 56.4167],2.494,1.102,4.026,2.596,2.174,0.857,3.474,2.237,107.0,645.0
2015-01-13,Edinburgh,Scotland,-3.1667,55.9167,[-3.6667 55.4167 -2.6667 56.4167],2.494,1.102,4.026,2.596,2.178,0.881,3.558,2.282,107.0,653.0
2015-01-14,Edinburgh,Scotland,-3.1667,55.9167,[-3.6667 55.4167 -2.6667 56.4167],2.089,0.925,3.176,2.229,2.016,0.84,3.327,2.176,85.0,651.0
2015-01-15,Edinburgh,Scotland,-3.1667,55.9167,[-3.6667 55.4167 -2.6667 56.4167],2.393,1.005,3.617,2.465,2.052,0.882,3.282,2.191,91.0,651.0
2015-01-16,Edinburgh,Scotland,-3.1667,55.9167,[-3.6667 55.4167 -2.6667 56.4167],2.434,1.013,4.019,2.682,2.293,0.951,3.598,2.363,56.0,646.0
2015-01-17,Edinburgh,Scotland,-3.1667,55.9167,[-3.6667 55.4167 -2.6667 56.4167],1.933,0.743,3.218,2.193,2.132,0.883,3.495,2.322,87.0,647.0
2015-01-18,Edinburgh,Scotland,-3.1667,55.9167,[-3.6667 55.4167 -2.6667 56.4167],1.933,0.743,3.218,2.231,2.047,0.966,3.456,2.294,68.0,652.0
2015-01-19,Edinburgh,Scotland,-3.1667,55.9167,[-3.6667 55.4167 -2.6667 56.4167],1.965,0.743,3.218,2.218,2.18,0.976,3.624,2.399,96.0,646.0
2015-01-20,Edinburgh,Scotland,-3.1667,55.9167,[-3.6667 55.4167 -2.6667 56.4167],2.087,0.997,3.335,2.289,2.271,1.07,3.778,2.499,90.0,657.0
2015-01-21,Edinburgh,Scotland,-3.1667,55.9167,[-3.6667 55.4167 -2.6667 56.4167],2.042,1.013,3.218,2.273,2.327,1.055,3.779,2.549,93.0,653.0
2015-01-22,Edinburgh,Scotland,-3.1667,55.9167,[-3.6667 55.4167 -2.6667 56.4167],2.042,0.997,3.218,2.252,2.18,1.013,3.539,2.389,94.0,656.0
2015-01-23,Edinburgh,Scotland,-3.1667,55.9167,[-3.6667 55.4167 -2.6667 56.4167],2.042,0.997,3.234,2.262,2.18,0.989,3.42,2.354,99.0,662.0
2015-01-24,Edinburgh,Scotland,-3.1667,55.9167,[-3.6667 55.4167 -2.6667 56.4167],2.042,0.743,4.019,2.375,2.298,0.96,3.6,2.415,93.0,659.0
2015-01-25,Edinburgh,Scotland,-3.1667,55.9167,[-3.6667 55.4167 -2.6667 56.4167],2.087,0.997,3.84,2.361,2.16,0.934,3.393,2.298,98.0,703.0
2015-01-26,Edinburgh,Scotland,-3.1667,55.9167,[-3.6667 55.4167 -2.6667 56.4167],2.051,0.997,3.834,2.306,2.143,0.927,3.34,2.255,101.0,695.0
2015-01-27,Edinburgh,Scotland,-3.1667,55.9167,[-3.6667 55.4167 -2.6667 56.4167],1.835,0.509,3.234,1.984,2.142,0.856,3.212,2.194,87.0,704.0
2015-01-28,Edinburgh,Scotland,-3.1667,55.9167,[-3.6667 55.4167 -2.6667 56.4167],1.89,0.567,3.234,2.102,2.066,0.834,3.14,2.137,88.0,698.0
2015-01-29,Edinburgh,Scotland,-3.1667,55.9167,[-3.6667 55.4167 -2.6667 56.4167],1.786,0.556,2.941,1.961,2.031,0.838,3.048,2.116,92.0,704.0
2015-01-30,Edinburgh,Scotland,-3.1667,55.9167,[-3.6667 55.4167 -2.6667 56.4167],1.835,0.567,3.234,2.2,2.024,0.872,3.091,2.152,96.0,698.0
2015-01-31,Edinburgh,Scotland,-3.1667,55.9167,[-3.6667 55.4167 -2.6667 56.4167],1.835,0.567,3.234,2.2,1.985,0.834,3.051,2.1,101.0,696.0
2015-02-01,Edinburgh,Scotland,-3.1667,55.9167,[-3.6667 55.4167 -2.6667 56.4167],2.042,1.096,3.834,2.402,1.937,0.947,3.164,2.144,80.0,689.0
2015-02-02,Edinburgh,Scotland,-3.1667,55.9167,[-3.6667 55.4167 -2.6667 56.4167],1.942,0.855,3.234,2.258,1.89,0.876,3.171,2.16,116.0,688.0
2015-02-03,Edinburgh,Scotland,-3.1667,55.9167,[-3.6667 55.4167 -2.6667 56.4167],2.009,0.855,3.234,2.3,1.775,0.77,3.013,1.999,91.0,694.0
2015-02-04,Edinburgh,Scotland,-3.1667,55.9167,[-3.6667 55.4167 -2.6667 56.4167],2.009,0.855,3.234,2.3,1.65,0.759,2.956,1.912,91.0,687.0
2015-02-05,Edinburgh,Scotland,-3.1667,55.9167,[-3.6667 55.4167 -2.6667 56.4167],2.021,1.096,3.296,2.429,1.658,0.8,2.982,1.957,94.0,698.0
2015-02-06,Edinburgh,Scotland,-3.1667,55.9167,[-3.6667 55.4167 -2.6667 56.4167],2.038,1.096,3.296,2.447,1.717,0.857,3.1,2.027,93.0,689.0
2015-02-07,Edinburgh,Scotland,-3.1667,55.9167,[-3.6667 55.4167 -2.6667 56.4167],2.021,1.096,3.296,2.455,1.767,0.94,3.109,2.112,88.0,692.0
2015-02-08,Edinburgh,Scotland,-3.1667,55.9167,[-3.6667 55.4167 -2.6667 56.4167],2.009,1.096,3.296,2.461,1.898,0.95,3.324,2.241,89.0,695.0
2015-02-09,Edinburgh,Scotland,-3.1667,55.9167,[-3.6667 55.4167 -2.6667 56.4167],2.021,1.07,3.424,2.602,2.027,0.992,3.414,2.335,101.0,693.0
2015-02-10,Edinburgh,Scotland,-3.1667,55.9167,[-3.6667 55.4167 -2.6667 56.4167],2.009,1.025,3.424,2.565,2.078,0.994,3.437,2.377,101.0,698.0
2015-02-11,Edinburgh,Scotland,-3.1667,55.9167,[-3.6667 55.4167 -2.6667 56.4167],2.009,1.025,3.424,2.565,2.073,1.037,3.448,2.384,101.0,644.0
2015-02-12,Edinburgh,Scotland,-3.1667,55.9167,[-3.6667 55.4167 -2.6667 56.4167],1.846,0.981,3.313,2.491,2.104,1.09,3.542,2.455,100.0,653.0
2015-02-13,Edinburgh,Scotland,-3.1667,55.9167,[-3.6667 55.4167 -2.6667 56.4167],2.219,1.026,4.241,2.729,2.078,0.924,3.683,2.389,108.0,650.0
2015-02-14,Edinburgh,Scotland,-3.1667,55.9167,[-3.6667 55.4167 -2.6667 56.4167],1.846,0.793,3.272,2.156,1.982,0.855,3.48,2.243,108.0,663.0
2015-02-15,Edinburgh,Scotland,-3.1667,55.9167,[-3.6667 55.4167 -2.6667 56.4167],1.846,0.793,3.272,2.155,2.048,0.979,3.463,2.282,103.0,661.0
2015-02-16,Edinburgh,Scotland,-3.1667,55.9167,[-3.6667 55.4167 -2.6667 56.4167],2.02,0.793,3.272,2.244,2.2,1.042,3.506,2.37,94.0,660.0
2015-02-17,Edinburgh,Scotland,-3.1667,55.9167,[-3.6667 55.4167 -2.6667 56.4167],1.962,0.714,3.296,2.266,2.18,1.135,3.631,2.451,65.0,655.0
2015-02-18,Edinburgh,Scotland,-3.1667,55.9167,[-3.6667 55.4167 -2.6667 56.4167],1.764,0.714,3.296,2.22,2.21,1.086,3.585,2.479,65.0,655.0
2015-02-19,Edinburgh,Scotland,-3.1667,55.9167,[-3.6667 55.4167 -2.6667 56.4167],1.968,0.714,3.374,2.256,2.373,1.14,3.808,2.593,70.0,662.0
2015-02-20,Edinburgh,Scotland,-3.1667,55.9167,[-3.6667 55.4167 -2.6667 56.4167],1.764,0.692,3.374,2.063,2.505,1.339,3.871,2.691,65.0,654.0
2015-02-21,Edinburgh,Scotland,-3.1667,55.9167,[-3.6667 55.4167 -2.6667 56.4167],1.764,0.692,3.374,2.063,2.367,1.293,3.83,2.656,65.0,663.0
2015-02-22,Edinburgh,Scotland,-3.1667,55.9167,[-3.6667 55.4167 -2.6667 56.4167],1.962,0.692,3.374,2.114,2.377,1.241,3.798,2.615,73.0,651.0
2015-02-23,Edinburgh,Scotland,-3.1667,55.9167,[-3.6667 55.4167 -2.6667 56.4167],2.02,0.692,3.374,2.103,2.338,1.215,3.742,2.493,67.0,655.0
2015-02-24,Edinburgh,Scotland,-3.1667,55.9167,[-3.6667 55.4167 -2.6667 56.4167],1.475,0.546,2.614,1.739,2.168,1.05,3.455,2.297,55.0,659.0
2015-02-25,Edinburgh,Scotland,-3.1667,55.9167,[-3.6667 55.4167 -2.6667 56.4167],2.087,0.714,3.012,1.995,2.251,0.988,3.554,2.318,75.0,653.0
2015-02-26,Edinburgh,Scotland,-3.1667,55.9167,[-3.6667 55.4167 -2.6667 56.4167],2.087,0.714,3.012,1.997,2.26,0.913,3.562,2.318,76.0,697.0
2015-02-27,Edinburgh,Scotland,-3.1667,55.9167,[-3.6667 55.4167 -2.6667 56.4167],2.087,0.714,3.012,1.997,2.26,0.914,3.579,2.318,76.0,692.0
2015-02-28,Edinburgh,Scotland,-3.1667,55.9167,[-3.6667 55.4167 -2.6667 56.4167],1.89,0.714,2.521,1.801,2.361,1.139,3.628,2.435,64.0,702.0
2015-03-01,Edinburgh,Scotland,-3.1667,55.9167,[-3.6667 55.4167 -2.6667 56.4167],1.89,0.688,2.521,1.772,2.277,1.101,3.542,2.396,62.0,694.0
2015-03-02,Edinburgh,Scotland,-3.1667,55.9167,[-3.6667 55.4167 -2.6667 56.4167],1.89,0.688,2.521,1.772,2.246,1.102,3.494,2.418,62.0,700.0
2015-03-03,Edinburgh,Scotland,-3.1667,55.9167,[-3.6667 55.4167 -2.6667 56.4167],1.89,0.688,3.012,1.843,2.207,1.047,3.526,2.381,68.0,699.0
2015-03-04,Edinburgh,Scotland,-3.1667,55.9167,[-3.6667 55.4167 -2.6667 56.4167],2.167,0.531,3.042,1.958,2.013,0.982,3.183,2.257,61.0,698.0
2015-03-05,Edinburgh,Scotland,-3.1667,55.9167,[-3.6667 55.4167 -2.6667 56.4167],2.167,0.531,3.042,1.977,2.074,1.007,3.208,2.292,58.0,694.0
2015-03-06,Edinburgh,Scotland,-3.1667,55.9167,[-3.6667 55.4167 -2.6667 56.4167],2.136,0.546,2.868,2.0,2.033,0.978,3.072,2.228,59.0,693.0
2015-03-07,Edinburgh,Scotland,-3.1667,55.9167,[-3.6667 55.4167 -2.6667 56.4167],2.136,0.546,2.753,1.992,1.912,0.881,2.734,1.96,58.0,699.0
2015-03-08,Edinburgh,Scotland,-3.1667,55.9167,[-3.6667 55.4167 -2.6667 56.4167],2.136,0.546,2.753,1.985,1.748,0.748,2.57,1.766,59.0,694.0
2015-03-09,Edinburgh,Scotland,-3.1667,55.9167,[-3.6667 55.4167 -2.6667 56.4167],1.937,0.465,2.717,1.885,1.711,0.699,2.537,1.735,51.0,708.0
2015-03-10,Edinburgh,Scotland,-3.1667,55.9167,[-3.6667 55.4167 -2.6667 56.4167],1.937,0.465,2.717,1.885,1.687,0.712,2.493,1.717,51.0,701.0
2015-03-11,Edinburgh,Scotland,-3.1667,55.9167,[-3.6667 55.4167 -2.6667 56.4167],2.171,0.571,3.012,2.062,1.821,0.779,2.585,1.858,48.0,704.0
2015-03-12,Edinburgh,Scotland,-3.1667,55.9167,[-3.6667 55.4167 -2.6667 56.4167],1.862,0.465,3.042,2.256,1.772,0.743,2.549,1.836,34.0,706.0
2015-03-13,Edinburgh,Scotland,-3.1667,55.9167,[-3.6667 55.4167 -2.6667 56.4167],1.937,0.531,3.313,2.37,1.991,0.832,3.026,2.181,38.0,705.0
2015-03-14,Edinburgh,Scotland,-3.1667,55.9167,[-3.6667 55.4167 -2.6667 56.4167],2.22,0.798,3.042,2.489,2.026,0.846,2.99,2.208,44.0,703.0
2015-03-15,Edinburgh,Scotland,-3.1667,55.9167,[-3.6667 55.4167 -2.6667 56.4167],2.22,0.798,3.042,2.489,2.014,0.847,2.992,2.153,44.0,649.0
2015-03-16,Edinburgh,Scotland,-3.1667,55.9167,[-3.6667 55.4167 -2.6667 56.4167],2.559,1.432,3.106,2.713,2.118,0.935,3.103,2.218,42.0,658.0
2015-03-17,Edinburgh,Scotland,-3.1667,55.9167,[-3.6667 55.4167 -2.6667 56.4167],2.596,1.443,3.344,2.823,1.899,0.814,2.835,2.061,48.0,653.0
2015-03-18,Edinburgh,Scotland,-3.1667,55.9167,[-3.6667 55.4167 -2.6667 56.4167],1.906,0.585,3.04,2.173,1.814,0.761,2.833,1.966,50.0,678.0
2015-03-19,Edinburgh,Scotland,-3.1667,55.9167,[-3.6667 55.4167 -2.6667 56.4167],1.906,0.585,3.04,2.206,1.748,0.559,2.838,1.953,51.0,712.0
2015-03-20,Edinburgh,Scotland,-3.1667,55.9167,[-3.6667 55.4167 -2.6667 56.4167],1.906,0.585,3.04,2.201,1.751,0.56,2.857,1.959,60.0,736.0
2015-03-21,Edinburgh,Scotland,-3.1667,55.9167,[-3.6667 55.4167 -2.6667 56.4167],1.906,0.585,3.04,2.115,1.767,0.62,2.847,1.96,54.0,744.0
2015-03-22,Edinburgh,Scotland,-3.1667,55.9167,[-3.6667 55.4167 -2.6667 56.4167],1.906,0.585,3.04,2.115,1.843,0.721,2.915,2.06,54.0,743.0
2015-03-23,Edinburgh,Scotland,-3.1667,55.9167,[-3.6667 55.4167 -2.6667 56.4167],1.906,0.585,3.04,2.122,1.986,0.78,3.062,2.176,53.0,748.0
2015-03-24,Edinburgh,Scotland,-3.1667,55.9167,[-3.6667 55.4167 -2.6667 56.4167],1.906,0.578,3.04,2.102,2.021,0.821,3.176,2.228,72.0,741.0
2015-03-25,Edinburgh,Scotland,-3.1667,55.9167,[-3.6667 55.4167 -2.6667 56.4167],1.906,0.578,3.04,2.102,2.051,0.834,3.285,2.246,72.0,746.0
2015-03-26,Edinburgh,Scotland,-3.1667,55.9167,[-3.6667 55.4167 -2.6667 56.4167],2.048,0.585,3.344,2.391,2.027,0.896,3.358,2.316,86.0,741.0
2015-03-27,Edinburgh,Scotland,-3.1667,55.9167,[-3.6667 55.4167 -2.6667 56.4167],1.906,0.565,3.195,2.233,2.024,0.943,3.39,2.32,77.0,744.0
2015-03-28,Edinburgh,Scotland,-3.1667,55.9167,[-3.6667 55.4167 -2.6667 56.4167],1.906,0.551,3.195,2.18,1.947,0.852,3.196,2.078,72.0,750.0
2015-03-29,Edinburgh,Scotland,-3.1667,55.9167,[-3.6667 55.4167 -2.6667 56.4167],1.432,0.432,2.773,1.835,1.866,0.871,3.013,1.996,101.0,745.0
2015-03-30,Edinburgh,Scotland,-3.1667,55.9167,[-3.6667 55.4167 -2.6667 56.4167],1.996,0.551,3.018,2.024,2.018,0.892,3.077,2.047,111.0,792.0
2015-03-31,Edinburgh,Scotland,-3.1667,55.9167,[-3.6667 55.4167 -2.6667 56.4167],2.048,0.551,3.018,2.038,2.019,0.834,3.042,2.038,124.0,785.0
2015-04-01,Edinburgh,Scotland,-3.1667,55.9167,[-3.6667 55.4167 -2.6667 56.4167],1.826,0.572,2.845,1.902,1.952,0.801,2.927,1.996,136.0,796.0
2015-04-02,Edinburgh,Scotland,-3.1667,55.9167,[-3.6667 55.4167 -2.6667 56.4167],1.877,0.998,3.195,2.205,1.873,0.888,2.9,1.99,155.0,772.0
2015-04-03,Edinburgh,Scotland,-3.1667,55.9167,[-3.6667 55.4167 -2.6667 56.4167],1.996,1.16,3.347,2.252,1.864,1.008,3.019,2.038,164.0,741.0
2015-04-04,Edinburgh,Scotland,-3.1667,55.9167,[-3.6667 55.4167 -2.6667 56.4167],1.996,1.158,3.218,2.214,1.921,0.98,2.972,2.073,165.0,715.0
2015-04-05,Edinburgh,Scotland,-3.1667,55.9167,[-3.6667 55.4167 -2.6667 56.4167],2.189,1.206,3.09,2.225,1.953,0.946,2.888,2.05,179.0,699.0
2015-04-06,Edinburgh,Scotland,-3.1667,55.9167,[-3.6667 55.4167 -2.6667 56.4167],2.189,1.206,3.09,2.225,1.894,0.94,2.88,2.02,179.0,695.0
2015-04-07,Edinburgh,Scotland,-3.1667,55.9167,[-3.6667 55.4167 -2.6667 56.4167],2.189,1.206,3.09,2.225,1.885,0.92,2.872,2.011,179.0,719.0
2015-04-08,Edinburgh,Scotland,-3.1667,55.9167,[-3.6667 55.4167 -2.6667 56.4167],2.189,1.258,3.218,2.246,1.801,0.902,2.909,1.927,169.0,750.0
2015-04-09,Edinburgh,Scotland,-3.1667,55.9167,[-3.6667 55.4167 -2.6667 56.4167],2.269,1.304,3.418,2.467,1.835,0.94,2.981,2.044,206.0,784.0
2015-04-10,Edinburgh,Scotland,-3.1667,55.9167,[-3.6667 55.4167 -2.6667 56.4167],1.996,1.249,3.225,2.299,1.732,0.945,2.873,1.991,201.0,786.0
2015-04-11,Edinburgh,Scotland,-3.1667,55.9167,[-3.6667 55.4167 -2.6667 56.4167],1.948,1.033,3.127,2.207,1.663,0.802,2.814,1.906,218.0,782.0
2015-04-12,Edinburgh,Scotland,-3.1667,55.9167,[-3.6667 55.4167 -2.6667 56.4167],1.948,1.033,3.127,2.207,1.705,0.836,2.753,1.867,218.0,782.0
2015-04-13,Edinburgh,Scotland,-3.1667,55.9167,[-3.6667 55.4167 -2.6667 56.4167],1.963,1.183,3.347,2.323,1.695,0.869,2.828,1.906,185.0,788.0
2015-04-14,Edinburgh,Scotland,-3.1667,55.9167,[-3.6667 55.4167 -2.6667 56.4167],1.877,1.112,3.09,2.267,1.685,0.894,2.934,1.964,210.0,784.0
2015-04-15,Edinburgh,Scotland,-3.1667,55.9167,[-3.6667 55.4167 -2.6667 56.4167],1.942,1.249,3.368,2.411,1.761,1.008,3.079,2.046,201.0,784.0
2015-04-16,Edinburgh,Scotland,-3.1667,55.9167,[-3.6667 55.4167 -2.6667 56.4167],2.133,1.304,3.39,2.508,1.82,0.979,3.059,2.068,183.0,730.0
2015-04-17,Edinburgh,Scotland,-3.1667,55.9167,[-3.6667 55.4167 -2.6667 56.4167],2.253,1.388,3.397,2.551,1.941,1.088,3.116,2.155,161.0,761.0
2015-04-18,Edinburgh,Scotland,-3.1667,55.9167,[-3.6667 55.4167 -2.6667 56.4167],2.008,1.054,3.397,2.41,1.923,1.038,3.167,2.16,178.0,763.0
2015-04-19,Edinburgh,Scotland,-3.1667,55.9167,[-3.6667 55.4167 -2.6667 56.4167],1.904,0.945,3.397,2.299,1.885,1.001,3.149,2.096,176.0,784.0
2015-04-20,Edinburgh,Scotland,-3.1667,55.9167,[-3.6667 55.4167 -2.6667 56.4167],1.804,0.884,3.43,2.32,1.882,0.99,3.174,2.122,165.0,817.0
2015-04-21,Edinburgh,Scotland,-3.1667,55.9167,[-3.6667 55.4167 -2.6667 56.4167],1.841,0.9,3.597,2.34,1.887,0.909,3.213,2.099,168.0,843.0
2015-04-22,Edinburgh,Scotland,-3.1667,55.9167,[-3.6667 55.4167 -2.6667 56.4167],1.841,0.9,3.597,2.34,1.93,0.921,3.289,2.134,168.0,830.0
2015-04-23,Edinburgh,Scotland,-3.1667,55.9167,[-3.6667 55.4167 -2.6667 56.4167],1.804,0.797,3.43,2.29,2.001,0.93,3.178,2.174,185.0,804.0
2015-04-24,Edinburgh,Scotland,-3.1667,55.9167,[-3.6667 55.4167 -2.6667 56.4167],1.727,0.797,3.114,2.029,1.989,0.951,3.041,2.072,152.0,780.0
2015-04-25,Edinburgh,Scotland,-3.1667,55.9167,[-3.6667 55.4167 -2.6667 56.4167],1.727,0.797,3.235,2.076,2.004,0.969,3.073,2.08,145.0,784.0
2015-04-26,Edinburgh,Scotland,-3.1667,55.9167,[-3.6667 55.4167 -2.6667 56.4167],1.904,0.945,3.397,2.213,2.092,1.027,3.123,2.146,128.0,798.0
2015-04-27,Edinburgh,Scotland,-3.1667,55.9167,[-3.6667 55.4167 -2.6667 56.4167],1.932,1.054,3.27,2.208,2.122,1.084,3.235,2.205,145.0,803.0
2015-04-28,Edinburgh,Scotland,-3.1667,55.9167,[-3.6667 55.4167 -2.6667 56.4167],1.932,1.054,3.368,2.221,2.083,1.06,3.194,2.185,143.0,814.0
2015-04-29,Edinburgh,Scotland,-3.1667,55.9167,[-3.6667 55.4167 -2.6667 56.4167],1.904,0.945,3.43,2.198,1.994,0.976,3.131,2.053,109.0,837.0
2015-04-30,Edinburgh,Scotland,-3.1667,55.9167,[-3.6667 55.4167 -2.6667 56.4167],1.727,0.851,3.43,2.021,1.835,0.809,3.031,1.906,108.0,852.0
2015-05-01,Edinburgh,Scotland,-3.1667,55.9167,[-3.6667 55.4167 -2.6667 56.4167],1.841,0.851,3.43,2.051,1.864,0.861,2.973,1.894,115.0,915.0
2015-05-02,Edinburgh,Scotland,-3.1667,55.9167,[-3.6667 55.4167 -2.6667 56.4167],1.718,0.797,3.203,1.875,1.905,0.82,2.982,1.883,124.0,906.0
2015-05-03,Edinburgh,Scotland,-3.1667,55.9167,[-3.6667 55.4167 -2.6667 56.4167],1.727,0.706,3.206,1.947,1.901,0.826,2.951,1.898,97.0,933.0
2015-05-04,Edinburgh,Scotland,-3.1667,55.9167,[-3.6667 55.4167 -2.6667 56.4167],1.935,1.028,3.366,2.23,1.905,0.931,2.914,1.926,96.0,940.0
2015-05-05,Edinburgh,Scotland,-3.1667,55.9167,[-3.6667 55.4167 -2.6667 56.4167],1.932,1.027,3.27,2.168,1.843,0.875,2.894,1.882,93.0,936.0
2015-05-06,Edinburgh,Scotland,-3.1667,55.9167,[-3.6667 55.4167 -2.6667 56.4167],1.932,1.027,3.206,2.113,1.912,0.958,2.928,1.963,92.0,947.0
2015-05-07,Edinburgh,Scotland,-3.1667,55.9167,[-3.6667 55.4167 -2.6667 56.4167],1.8,0.937,3.163,2.02,1.87,0.924,2.787,1.886,104.0,961.0
2015-05-08,Edinburgh,Scotland,-3.1667,55.9167,[-3.6667 55.4167 -2.6667 56.4167],1.932,1.027,3.163,2.089,1.728,0.932,2.77,1.851,78.0,972.0
2015-05-09,Edinburgh,Scotland,-3.1667,55.9167,[-3.6667 55.4167 -2.6667 56.4167],1.735,0.826,2.965,1.853,1.689,0.99,2.749,1.833,102.0,989.0
2015-05-10,Edinburgh,Scotland,-3.1667,55.9167,[-3.6667 55.4167 -2.6667 56.4167],1.727,0.98,2.965,1.858,1.679,1.004,2.657,1.801,103.0,1014.0
2015-05-11,Edinburgh,Scotland,-3.1667,55.9167,[-3.6667 55.4167 -2.6667 56.4167],1.8,1.027,3.14,2.138,1.677,1.025,2.685,1.851,115.0,1036.0
2015-05-12,Edinburgh,Scotland,-3.1667,55.9167,[-3.6667 55.4167 -2.6667 56.4167],1.781,0.826,3.14,2.121,1.67,0.938,2.682,1.827,99.0,1072.0
2015-05-13,Edinburgh,Scotland,-3.1667,55.9167,[-3.6667 55.4167 -2.6667 56.4167],1.811,0.98,3.14,2.161,1.662,0.941,2.679,1.838,111.0,1103.0
2015-05-14,Edinburgh,Scotland,-3.1667,55.9167,[-3.6667 55.4167 -2.6667 56.4167],1.811,0.98,3.14,2.157,1.692,0.892,2.727,1.867,110.0,1130.0
2015-05-15,Edinburgh,Scotland,-3.1667,55.9167,[-3.6667 55.4167 -2.6667 56.4167],1.8,0.826,3.073,2.07,1.784,0.956,2.723,1.907,101.0,1165.0
2015-05-16,Edinburgh,Scotland,-3.1667,55.9167,[-3.6667 55.4167 -2.6667 56.4167],1.666,0.826,2.79,1.928,1.767,1.031,2.72,1.945,122.0,1194.0
2015-05-17,Edinburgh,Scotland,-3.1667,55.9167,[-3.6667 55.4167 -2.6667 56.4167],1.666,0.811,2.694,1.908,1.712,0.998,2.709,1.886,107.0,1225.0
2015-05-18,Edinburgh,Scotland,-3.1667,55.9167,[-3.6667 55.4167 -2.6667 56.4167],1.666,0.811,2.694,1.908,1.809,1.029,2.775,1.979,107.0,1149.0
2015-05-19,Edinburgh,Scotland,-3.1667,55.9167,[-3.6667 55.4167 -2.6667 56.4167],1.666,0.735,2.79,1.934,1.835,0.968,2.797,1.978,101.0,1148.0
2015-05-20,Edinburgh,Scotland,-3.1667,55.9167,[-3.6667 55.4167 -2.6667 56.4167],1.666,0.735,2.79,1.934,1.738,0.892,2.792,1.951,101.0,1130.0
2015-05-21,Edinburgh,Scotland,-3.1667,55.9167,[-3.6667 55.4167 -2.6667 56.4167],1.621,0.826,2.626,1.857,1.676,0.943,2.746,1.885,109.0,1114.0
2015-05-22,Edinburgh,Scotland,-3.1667,55.9167,[-3.6667 55.4167 -2.6667 56.4167],1.759,1.022,2.626,1.946,1.729,0.949,2.795,1.929,107.0,1114.0
2015-05-23,Edinburgh,Scotland,-3.1667,55.9167,[-3.6667 55.4167 -2.6667 56.4167],1.778,1.022,2.79,1.98,1.739,0.956,2.829,1.938,124.0,1145.0
2015-05-24,Edinburgh,Scotland,-3.1667,55.9167,[-3.6667 55.4167 -2.6667 56.4167],1.868,1.2,2.864,2.137,1.724,0.933,2.909,1.932,97.0,1164.0
2015-05-25,Edinburgh,Scotland,-3.1667,55.9167,[-3.6667 55.4167 -2.6667 56.4167],1.912,1.448,2.864,2.147,1.841,0.98,2.991,2.026,99.0,1193.0
2015-05-26,Edinburgh,Scotland,-3.1667,55.9167,[-3.6667 55.4167 -2.6667 56.4167],1.827,1.077,2.617,1.895,1.77,0.834,2.92,1.928,90.0,1214.0
2015-05-27,Edinburgh,Scotland,-3.1667,55.9167,[-3.6667 55.4167 -2.6667 56.4167],1.772,1.022,2.617,1.893,1.768,0.867,2.924,1.957,105.0,1207.0
2015-05-28,Edinburgh,Scotland,-3.1667,55.9167,[-3.6667 55.4167 -2.6667 56.4167],1.759,1.022,2.445,1.827,1.767,0.864,2.893,1.94,93.0,1211.0
2015-05-29,Edinburgh,Scotland,-3.1667,55.9167,[-3.6667 55.4167 -2.6667 56.4167],1.759,1.022,2.445,1.827,1.753,0.884,2.823,1.922,93.0,1207.0
2015-05-30,Edinburgh,Scotland,-3.1667,55.9167,[-3.6667 55.4167 -2.6667 56.4167],1.759,1.022,2.445,1.827,1.659,0.899,2.705,1.873,93.0,1205.0
2015-05-31,Edinburgh,Scotland,-3.1667,55.9167,[-3.6667 55.4167 -2.6667 56.4167],1.772,0.977,2.445,1.796,1.457,0.688,2.5,1.696,75.0,1210.0
2015-06-01,Edinburgh,Scotland,-3.1667,55.9167,[-3.6667 55.4167 -2.6667 56.4167],1.759,0.977,2.445,1.781,1.448,0.706,2.386,1.682,83.0,1206.0
2015-06-02,Edinburgh,Scotland,-3.1667,55.9167,[-3.6667 55.4167 -2.6667 56.4167],1.89,1.022,2.818,2.013,1.472,0.698,2.275,1.562,88.0,1301.0
2015-06-03,Edinburgh,Scotland,-3.1667,55.9167,[-3.6667 55.4167 -2.6667 56.4167],1.861,0.977,2.818,1.972,1.479,0.704,2.318,1.572,125.0,1321.0
2015-06-04,Edinburgh,Scotland,-3.1667,55.9167,[-3.6667 55.4167 -2.6667 56.4167],1.89,0.949,2.914,2.007,1.553,0.727,2.43,1.662,141.0,1361.0
2015-06-05,Edinburgh,Scotland,-3.1667,55.9167,[-3.6667 55.4167 -2.6667 56.4167],2.176,1.112,3.703,2.599,1.609,0.812,2.76,1.879,155.0,1386.0
2015-06-06,Edinburgh,Scotland,-3.1667,55.9167,[-3.6667 55.4167 -2.6667 56.4167],2.183,1.033,3.716,2.633,1.594,0.775,2.695,1.877,145.0,1401.0
2015-06-07,Edinburgh,Scotland,-3.1667,55.9167,[-3.6667 55.4167 -2.6667 56.4167],2.176,0.977,3.781,2.708,1.514,0.7,2.689,1.872,132.0,1401.0
2015-06-08,Edinburgh,Scotland,-3.1667,55.9167,[-3.6667 55.4167 -2.6667 56.4167],2.183,0.977,3.781,2.712,1.562,0.719,2.783,1.957,131.0,1381.0
2015-06-09,Edinburgh,Scotland,-3.1667,55.9167,[-3.6667 55.4167 -2.6667 56.4167],2.183,0.977,3.937,2.742,1.539,0.715,2.837,1.936,124.0,1337.0
2015-06-10,Edinburgh,Scotland,-3.1667,55.9167,[-3.6667 55.4167 -2.6667 56.4167],2.05,0.977,3.781,2.697,1.466,0.703,2.796,1.876,126.0,1309.0
2015-06-11,Edinburgh,Scotland,-3.1667,55.9167,[-3.6667 55.4167 -2.6667 56.4167],2.262,1.003,3.937,2.778,1.476,0.5,2.711,1.769,110.0,1309.0
2015-06-12,Edinburgh,Scotland,-3.1667,55.9167,[-3.6667 55.4167 -2.6667 56.4167],2.262,1.003,3.937,2.778,1.42,0.529,2.61,1.705,110.0,1296.0
2015-06-13,Edinburgh,Scotland,-3.1667,55.9167,[-3.6667 55.4167 -2.6667 56.4167],2.262,1.003,3.937,2.778,1.423,0.469,2.617,1.687,110.0,1296.0
2015-06-14,Edinburgh,Scotland,-3.1667,55.9167,[-3.6667 55.4167 -2.6667 56.4167],2.262,1.003,3.937,2.778,1.415,0.408,2.706,1.685,110.0,1294.0
2015-06-15,Edinburgh,Scotland,-3.1667,55.9167,[-3.6667 55.4167 -2.6667 56.4167],2.902,1.18,4.436,3.007,1.901,0.592,3.002,1.882,100.0,1292.0
2015-06-16,Edinburgh,Scotland,-3.1667,55.9167,[-3.6667 55.4167 -2.6667 56.4167],3.052,1.202,4.13,3.087,1.968,0.67,2.851,1.933,93.0,1300.0
2015-06-17,Edinburgh,Scotland,-3.1667,55.9167,[-3.6667 55.4167 -2.6667 56.4167],2.812,1.152,3.937,2.983,1.752,0.496,2.653,1.764,88.0,1297.0
2015-06-18,Edinburgh,Scotland,-3.1667,55.9167,[-3.6667 55.4167 -2.6667 56.4167],3.235,1.983,4.931,3.617,1.566,0.5,2.608,1.631,50.0,1298.0